This is the latest recevied weather packets stored in our database for station/object DG8SF-13. If no packets are shown the sender has not sent any weather packets the latest 1 day(s).
| Time | Temp. | Humidity | Pressure | Rain* | Wind** | Luminosity | Snow |
|---|---|---|---|---|---|---|---|
| 1777947656 | 7.22° C | 97% | 1010 hPa | 0 mm | 0 m/s | - | - |
| 1777947341 | 7.22° C | 97% | 1010 hPa | 0 mm | 0 m/s | - | - |
| 1777947031 | 7.22° C | 97% | 1010 hPa | 0 mm | 0 m/s | - | - |
| 1777946719 | 7.78° C | 96% | 1010.1 hPa | 0 mm | 0 m/s | - | - |
| 1777946408 | 7.22° C | 96% | 1010.1 hPa | 0 mm | 0 m/s | - | - |
| 1777946093 | 7.22° C | 96% | 1010.3 hPa | 0 mm | 0 m/s | - | - |
| 1777945783 | 7.78° C | 96% | 1010.2 hPa | 0 mm | 0 m/s | - | - |
| 1777945469 | 7.78° C | 96% | 1010.4 hPa | 0 mm | 0 m/s | - | - |
| 1777945160 | 7.78° C | 96% | 1010.3 hPa | 0 mm | 0 m/s | - | - |
| 1777944845 | 8.33° C | 96% | 1010.5 hPa | 0 mm | 0 m/s | - | - |
| 1777944537 | 7.78° C | 95% | 1010.5 hPa | 0 mm | 0 m/s | - | - |
| 1777944220 | 7.78° C | 95% | 1010.5 hPa | 0 mm | 0 m/s | - | - |
| 1777943911 | 8.33° C | 95% | 1010.6 hPa | 0 mm | 0 m/s | - | - |
| 1777943598 | 8.33° C | 95% | 1010.6 hPa | 0 mm | 0 m/s | - | - |
| 1777943286 | 8.33° C | 96% | 1010.6 hPa | 0 mm | 0 m/s | - | - |
| 1777942973 | 8.33° C | 95% | 1010.6 hPa | 0 mm | 0 m/s | - | - |
| 1777942662 | 8.33° C | 94% | 1010.7 hPa | 0 mm | 0 m/s | - | - |
| 1777942359 | 8.33° C | 94% | 1010.7 hPa | 0 mm | 0 m/s | - | - |
| 1777942039 | 8.33° C | 94% | 1010.7 hPa | 0 mm | 0 m/s | - | - |
| 1777941728 | 8.89° C | 94% | 1010.8 hPa | 0 mm | 0 m/s | - | - |
| 1777941413 | 8.89° C | 94% | 1010.8 hPa | 0 mm | 0 m/s | - | - |
| 1777941101 | 8.89° C | 94% | 1010.8 hPa | 0 mm | 0 m/s | - | - |
| 1777940792 | 8.89° C | 93% | 1010.9 hPa | 0 mm | 0 m/s | - | - |
| 1777940479 | 9.44° C | 92% | 1010.8 hPa | 0 mm | 0 m/s | - | - |
| 1777940166 | 9.44° C | 92% | 1010.8 hPa | 0 mm | 0 m/s | - | - |
* Rain latest hour (hover to see other rain measurements)
** Current wind speed in m/s (hover to see current wind gust speed)